Year,Month,Day,Hour,Minute,Value (Times are PST for temperature in C)
2021,04,12,00,00,1.70
2021,04,12,00,01,1.70
2021,04,12,00,02,1.70
2021,04,12,00,03,1.60
2021,04,12,00,04,1.70
2021,04,12,00,05,1.70
2021,04,12,00,06,1.70
2021,04,12,00,07,1.80
2021,04,12,00,08,1.90
2021,04,12,00,09,2.10
2021,04,12,00,10,2.20
2021,04,12,00,11,2.30
2021,04,12,00,12,2.30
2021,04,12,00,13,2.30
2021,04,12,00,14,2.30
2021,04,12,00,15,2.20
2021,04,12,00,16,2.10
2021,04,12,00,17,2.00
2021,04,12,00,18,2.00
2021,04,12,00,19,2.00
2021,04,12,00,20,1.90
2021,04,12,00,21,1.90
2021,04,12,00,22,1.90
2021,04,12,00,23,1.90
2021,04,12,00,24,1.90
2021,04,12,00,25,1.80
2021,04,12,00,26,1.80
2021,04,12,00,27,1.70
2021,04,12,00,28,1.70
2021,04,12,00,29,1.60
2021,04,12,00,30,1.60
2021,04,12,00,31,1.50
2021,04,12,00,32,1.50
2021,04,12,00,33,1.50
2021,04,12,00,34,1.40
2021,04,12,00,35,1.40
2021,04,12,00,36,1.40
2021,04,12,00,37,1.40
2021,04,12,00,38,1.40
2021,04,12,00,39,1.40
2021,04,12,00,40,1.30
2021,04,12,00,41,1.30
2021,04,12,00,42,1.30
2021,04,12,00,43,1.30
2021,04,12,00,44,1.20
2021,04,12,00,45,1.20
2021,04,12,00,46,1.20
2021,04,12,00,47,1.10
2021,04,12,00,48,1.10
2021,04,12,00,49,1.10
2021,04,12,00,50,1.10
2021,04,12,00,51,1.10
2021,04,12,00,52,1.10
2021,04,12,00,53,1.10
2021,04,12,00,54,1.10
2021,04,12,00,55,1.00
2021,04,12,00,56,1.00
2021,04,12,00,57,1.00
2021,04,12,00,58,1.00
2021,04,12,00,59,0.90
2021,04,12,01,00,0.90
2021,04,12,01,01,0.90
2021,04,12,01,02,0.90
2021,04,12,01,03,0.90
2021,04,12,01,04,0.90
2021,04,12,01,05,0.90
2021,04,12,01,06,0.90
2021,04,12,01,07,0.90
2021,04,12,01,08,0.90
2021,04,12,01,09,1.00
2021,04,12,01,10,1.00
2021,04,12,01,11,1.00
2021,04,12,01,12,1.00
2021,04,12,01,13,1.00
2021,04,12,01,14,1.00
2021,04,12,01,15,1.00
2021,04,12,01,16,0.90
2021,04,12,01,17,0.90
2021,04,12,01,18,0.90
2021,04,12,01,19,0.90
2021,04,12,01,20,0.90
2021,04,12,01,21,0.90
2021,04,12,01,22,0.90
2021,04,12,01,23,0.90
2021,04,12,01,24,0.90
2021,04,12,01,25,0.90
2021,04,12,01,26,0.90
2021,04,12,01,27,0.90
2021,04,12,01,28,0.90
2021,04,12,01,29,0.80
2021,04,12,01,30,0.80
2021,04,12,01,31,0.90
2021,04,12,01,32,0.90
2021,04,12,01,33,1.00
2021,04,12,01,34,1.00
2021,04,12,01,35,1.10
2021,04,12,01,36,1.10
2021,04,12,01,37,1.10
2021,04,12,01,38,1.10
2021,04,12,01,39,1.10
2021,04,12,01,40,1.00
2021,04,12,01,41,1.00
2021,04,12,01,42,1.00
2021,04,12,01,43,0.90
2021,04,12,01,44,0.90
2021,04,12,01,45,0.90
2021,04,12,01,46,0.80
2021,04,12,01,47,0.80
2021,04,12,01,48,0.80
2021,04,12,01,49,0.80
2021,04,12,01,50,0.80
2021,04,12,01,51,0.70
2021,04,12,01,52,0.70
2021,04,12,01,53,0.70
2021,04,12,01,54,0.60
2021,04,12,01,55,0.60
2021,04,12,01,56,0.60
2021,04,12,01,57,0.60
2021,04,12,01,58,0.50
2021,04,12,01,59,0.50
2021,04,12,02,00,0.40
2021,04,12,02,01,0.40
2021,04,12,02,02,0.40
2021,04,12,02,03,0.40
2021,04,12,02,04,0.40
2021,04,12,02,05,0.40
2021,04,12,02,06,0.40
2021,04,12,02,07,0.40
2021,04,12,02,08,0.40
2021,04,12,02,09,0.40
2021,04,12,02,10,0.40
2021,04,12,02,11,0.50
2021,04,12,02,12,0.60
2021,04,12,02,13,0.60
2021,04,12,02,14,0.70
2021,04,12,02,15,0.70
2021,04,12,02,16,0.80
2021,04,12,02,17,0.90
2021,04,12,02,18,0.90
2021,04,12,02,19,1.00
2021,04,12,02,20,1.10
2021,04,12,02,21,1.20
2021,04,12,02,22,1.20
2021,04,12,02,23,1.30
2021,04,12,02,24,1.20
2021,04,12,02,25,1.20
2021,04,12,02,26,1.20
2021,04,12,02,27,1.20
2021,04,12,02,28,1.20
2021,04,12,02,29,1.20
2021,04,12,02,30,1.20
2021,04,12,02,31,1.20
2021,04,12,02,32,1.20
2021,04,12,02,33,1.30
2021,04,12,02,34,1.30
2021,04,12,02,35,1.20
2021,04,12,02,36,1.10
2021,04,12,02,37,1.10
2021,04,12,02,38,1.00
2021,04,12,02,39,1.00
2021,04,12,02,40,0.90
2021,04,12,02,41,0.90
2021,04,12,02,42,0.80
2021,04,12,02,43,0.80
2021,04,12,02,44,0.70
2021,04,12,02,45,0.70
2021,04,12,02,46,0.70
2021,04,12,02,47,0.70
2021,04,12,02,48,0.70
2021,04,12,02,49,0.70
2021,04,12,02,50,0.70
2021,04,12,02,51,0.80
2021,04,12,02,52,0.70
2021,04,12,02,53,0.70
2021,04,12,02,54,0.70
2021,04,12,02,55,0.60
2021,04,12,02,56,0.60
2021,04,12,02,57,0.60
2021,04,12,02,58,0.60
2021,04,12,02,59,0.60
2021,04,12,03,00,0.60
2021,04,12,03,01,0.60
2021,04,12,03,02,0.70
2021,04,12,03,03,0.80
2021,04,12,03,04,0.80
2021,04,12,03,05,0.90
2021,04,12,03,06,0.90
2021,04,12,03,07,0.90
2021,04,12,03,08,0.90
2021,04,12,03,09,0.90
2021,04,12,03,10,0.90
2021,04,12,03,11,0.80
2021,04,12,03,12,0.80
2021,04,12,03,13,0.80
2021,04,12,03,14,0.80
2021,04,12,03,15,0.80
2021,04,12,03,16,0.80
2021,04,12,03,17,0.90
2021,04,12,03,18,1.00
2021,04,12,03,19,1.10
2021,04,12,03,20,1.10
2021,04,12,03,21,1.10
2021,04,12,03,22,1.10
2021,04,12,03,23,1.10
2021,04,12,03,24,1.10
2021,04,12,03,25,1.00
2021,04,12,03,26,1.00
2021,04,12,03,27,0.90
2021,04,12,03,28,0.80
2021,04,12,03,29,0.80
2021,04,12,03,30,0.80
2021,04,12,03,31,0.70
2021,04,12,03,32,0.70
2021,04,12,03,33,0.60
2021,04,12,03,34,0.70
2021,04,12,03,35,0.60
2021,04,12,03,36,0.60
2021,04,12,03,37,0.70
2021,04,12,03,38,0.60
2021,04,12,03,39,0.60
2021,04,12,03,40,0.60
2021,04,12,03,41,0.60
2021,04,12,03,42,0.60
2021,04,12,03,43,0.50
2021,04,12,03,44,0.40
2021,04,12,03,45,0.40
2021,04,12,03,46,0.30
2021,04,12,03,47,0.30
2021,04,12,03,48,0.20
2021,04,12,03,49,0.10
2021,04,12,03,50,0.10
2021,04,12,03,51,0.10
2021,04,12,03,52,0.00
2021,04,12,03,53,0.00
2021,04,12,03,54,0.00
2021,04,12,03,55,-0.10
2021,04,12,03,56,-0.10
2021,04,12,03,57,-0.20
2021,04,12,03,58,-0.20
2021,04,12,03,59,-0.30
2021,04,12,04,00,-0.30
2021,04,12,04,01,-0.30
2021,04,12,04,02,-0.30
2021,04,12,04,03,-0.20
2021,04,12,04,04,-0.20
2021,04,12,04,05,-0.20
2021,04,12,04,06,-0.20
2021,04,12,04,07,-0.20
2021,04,12,04,08,-0.10
2021,04,12,04,09,-0.10
2021,04,12,04,10,-0.10
2021,04,12,04,11,-0.10
2021,04,12,04,12,-0.10
2021,04,12,04,13,-0.20
2021,04,12,04,14,-0.20
2021,04,12,04,15,-0.10
2021,04,12,04,16,-0.10
2021,04,12,04,17,-0.10
2021,04,12,04,18,-0.10
2021,04,12,04,19,-0.10
2021,04,12,04,20,-0.10
2021,04,12,04,21,-0.10
2021,04,12,04,22,-0.10
2021,04,12,04,23,-0.10
2021,04,12,04,24,-0.10
2021,04,12,04,25,-0.10
2021,04,12,04,26,-0.10
2021,04,12,04,27,-0.10
2021,04,12,04,28,-0.10
2021,04,12,04,29,-0.10
2021,04,12,04,30,-0.10
2021,04,12,04,31,-0.20
2021,04,12,04,32,-0.20
2021,04,12,04,33,-0.20
2021,04,12,04,34,-0.30
2021,04,12,04,35,-0.30
2021,04,12,04,36,-0.40
2021,04,12,04,37,-0.40
2021,04,12,04,38,-0.40
2021,04,12,04,39,-0.30
2021,04,12,04,40,-0.30
2021,04,12,04,41,-0.20
2021,04,12,04,42,-0.20
2021,04,12,04,43,-0.20
2021,04,12,04,44,-0.20
2021,04,12,04,45,-0.10
2021,04,12,04,46,-0.10
2021,04,12,04,47,-0.10
2021,04,12,04,48,-0.10
2021,04,12,04,49,-0.10
2021,04,12,04,50,-0.10
2021,04,12,04,51,-0.10
2021,04,12,04,52,-0.10
2021,04,12,04,53,-0.20
2021,04,12,04,54,-0.20
2021,04,12,04,55,-0.20
2021,04,12,04,56,-0.30
2021,04,12,04,57,-0.30
2021,04,12,04,58,-0.30
2021,04,12,04,59,-0.30
2021,04,12,05,00,-0.30
2021,04,12,05,01,-0.30
2021,04,12,05,02,-0.40
2021,04,12,05,03,-0.40
2021,04,12,05,04,-0.40
2021,04,12,05,05,-0.40
2021,04,12,05,06,-0.50
2021,04,12,05,07,-0.50
2021,04,12,05,08,-0.50
2021,04,12,05,09,-0.50
2021,04,12,05,10,-0.60
2021,04,12,05,11,-0.60
2021,04,12,05,12,-0.60
2021,04,12,05,13,-0.60
2021,04,12,05,14,-0.60
2021,04,12,05,15,-0.60
2021,04,12,05,16,-0.50
2021,04,12,05,17,-0.50
2021,04,12,05,18,-0.50
2021,04,12,05,19,-0.50
2021,04,12,05,20,-0.50
2021,04,12,05,21,-0.50
2021,04,12,05,22,-0.50
2021,04,12,05,23,-0.60
2021,04,12,05,24,-0.60
2021,04,12,05,25,-0.70
2021,04,12,05,26,-0.70
2021,04,12,05,27,-0.70
2021,04,12,05,28,-0.70
2021,04,12,05,29,-0.80
2021,04,12,05,30,-0.80
2021,04,12,05,31,-0.80
2021,04,12,05,32,-0.80
2021,04,12,05,33,-0.90
2021,04,12,05,34,-0.90
2021,04,12,05,35,-0.90
2021,04,12,05,36,-0.90
2021,04,12,05,37,-0.90
2021,04,12,05,38,-0.90
2021,04,12,05,39,-0.80
2021,04,12,05,40,-0.80
2021,04,12,05,41,-0.80
2021,04,12,05,42,-0.90
2021,04,12,05,43,-0.90
2021,04,12,05,44,-0.90
2021,04,12,05,45,-0.90
2021,04,12,05,46,-1.00
2021,04,12,05,47,-1.00
2021,04,12,05,48,-1.10
2021,04,12,05,49,-1.00
2021,04,12,05,50,-0.90
2021,04,12,05,51,-0.80
2021,04,12,05,52,-0.80
2021,04,12,05,53,-0.80
2021,04,12,05,54,-0.90
2021,04,12,05,55,-0.90
2021,04,12,05,56,-0.80
2021,04,12,05,57,-0.80
2021,04,12,05,58,-0.80
2021,04,12,05,59,-0.70
2021,04,12,06,00,-0.70
2021,04,12,06,01,-0.80
2021,04,12,06,02,-0.80
2021,04,12,06,03,-0.80
2021,04,12,06,04,-0.80
2021,04,12,06,05,-0.80
2021,04,12,06,06,-0.90
2021,04,12,06,07,-0.90
2021,04,12,06,08,-0.90
2021,04,12,06,09,-0.90
2021,04,12,06,10,-0.90
2021,04,12,06,11,-0.90
2021,04,12,06,12,-0.80
2021,04,12,06,13,-0.80
2021,04,12,06,14,-0.70
2021,04,12,06,15,-0.60
2021,04,12,06,16,-0.40
2021,04,12,06,17,-0.30
2021,04,12,06,18,-0.30
2021,04,12,06,19,-0.20
2021,04,12,06,20,-0.20
2021,04,12,06,21,-0.10
2021,04,12,06,22,-0.10
2021,04,12,06,23,-0.10
2021,04,12,06,24,-0.10
2021,04,12,06,25,-0.10
2021,04,12,06,26,-0.10
2021,04,12,06,27,-0.10
2021,04,12,06,28,-0.10
2021,04,12,06,29,-0.20
2021,04,12,06,30,-0.30
2021,04,12,06,31,-0.30
2021,04,12,06,32,-0.40
2021,04,12,06,33,-0.40
2021,04,12,06,34,-0.40
2021,04,12,06,35,-0.40
2021,04,12,06,36,-0.40
2021,04,12,06,37,-0.40
2021,04,12,06,38,-0.40
2021,04,12,06,39,-0.40
2021,04,12,06,40,-0.30
2021,04,12,06,41,-0.30
2021,04,12,06,42,-0.30
2021,04,12,06,43,-0.20
2021,04,12,06,44,-0.20
2021,04,12,06,45,-0.20
2021,04,12,06,46,-0.20
2021,04,12,06,47,-0.20
2021,04,12,06,48,-0.20
2021,04,12,06,49,-0.20
2021,04,12,06,50,-0.10
2021,04,12,06,51,-0.10
2021,04,12,06,52,-0.10
2021,04,12,06,53,-0.10
2021,04,12,06,54,0.00
2021,04,12,06,55,0.00
2021,04,12,06,56,0.00
2021,04,12,06,57,0.10
2021,04,12,06,58,0.10
2021,04,12,06,59,0.10
2021,04,12,07,00,0.10
2021,04,12,07,01,0.10
2021,04,12,07,02,0.10
2021,04,12,07,03,0.10
2021,04,12,07,04,0.10
2021,04,12,07,05,0.10
2021,04,12,07,06,0.10
2021,04,12,07,07,0.10
2021,04,12,07,08,0.10
2021,04,12,07,09,0.10
2021,04,12,07,10,0.10
2021,04,12,07,11,0.10
2021,04,12,07,12,0.10
2021,04,12,07,13,0.10
2021,04,12,07,14,0.20
2021,04,12,07,15,0.20
2021,04,12,07,16,0.20
2021,04,12,07,17,0.20
2021,04,12,07,18,0.30
2021,04,12,07,19,0.30
2021,04,12,07,20,0.30
2021,04,12,07,21,0.30
2021,04,12,07,22,0.40
2021,04,12,07,23,0.40
2021,04,12,07,24,0.50
2021,04,12,07,25,0.50
2021,04,12,07,26,0.50
2021,04,12,07,27,0.60
2021,04,12,07,28,0.60
2021,04,12,07,29,0.60
2021,04,12,07,30,0.60
2021,04,12,07,31,0.70
2021,04,12,07,32,0.70
2021,04,12,07,33,0.70
2021,04,12,07,34,0.70
2021,04,12,07,35,0.80
2021,04,12,07,36,0.80
2021,04,12,07,37,0.90
2021,04,12,07,38,1.00
2021,04,12,07,39,1.10
2021,04,12,07,40,1.10
2021,04,12,07,41,1.20
2021,04,12,07,42,1.20
2021,04,12,07,43,1.20
2021,04,12,07,44,1.30
2021,04,12,07,45,1.30
2021,04,12,07,46,1.40
2021,04,12,07,47,1.50
2021,04,12,07,48,1.50
2021,04,12,07,49,1.60
2021,04,12,07,50,1.60
2021,04,12,07,51,1.70
2021,04,12,07,52,1.70
2021,04,12,07,53,1.80
2021,04,12,07,54,1.90
2021,04,12,07,55,2.00
2021,04,12,07,56,2.00
2021,04,12,07,57,2.10
2021,04,12,07,58,2.10
2021,04,12,07,59,2.20
2021,04,12,08,00,2.30
2021,04,12,08,01,2.30
2021,04,12,08,02,2.40
2021,04,12,08,03,2.50
2021,04,12,08,04,2.60
2021,04,12,08,05,2.60
2021,04,12,08,06,2.70
2021,04,12,08,07,2.70
2021,04,12,08,08,2.80
2021,04,12,08,09,2.80
2021,04,12,08,10,2.90
2021,04,12,08,11,3.00
2021,04,12,08,12,3.10
2021,04,12,08,13,3.20
2021,04,12,08,14,3.40
2021,04,12,08,15,3.50
2021,04,12,08,16,3.60
2021,04,12,08,17,3.70
2021,04,12,08,18,3.80
2021,04,12,08,19,3.80
2021,04,12,08,20,3.90
2021,04,12,08,21,4.00
2021,04,12,08,22,4.10
2021,04,12,08,23,4.20
2021,04,12,08,24,4.30
2021,04,12,08,25,4.50
2021,04,12,08,26,4.70
2021,04,12,08,27,4.80
2021,04,12,08,28,4.90
2021,04,12,08,29,5.10
2021,04,12,08,30,5.10
2021,04,12,08,31,5.20
2021,04,12,08,32,5.20
2021,04,12,08,33,5.30
2021,04,12,08,34,5.30
2021,04,12,08,35,5.40
2021,04,12,08,36,5.50
2021,04,12,08,37,5.60
2021,04,12,08,38,5.80
2021,04,12,08,39,5.90
2021,04,12,08,40,6.00
2021,04,12,08,41,6.10
2021,04,12,08,42,6.20
2021,04,12,08,43,6.30
2021,04,12,08,44,6.40
2021,04,12,08,45,6.50
2021,04,12,08,46,6.60
2021,04,12,08,47,6.70
2021,04,12,08,48,6.80
2021,04,12,08,49,6.90
2021,04,12,08,50,7.00
2021,04,12,08,51,7.10
2021,04,12,08,52,7.20
2021,04,12,08,53,7.30
2021,04,12,08,54,7.30
2021,04,12,08,55,7.30
2021,04,12,08,56,7.40
2021,04,12,08,57,7.40
2021,04,12,08,58,7.40
2021,04,12,08,59,7.40
2021,04,12,09,00,7.40
2021,04,12,09,01,7.40
2021,04,12,09,02,7.50
2021,04,12,09,03,7.50
2021,04,12,09,04,7.50
2021,04,12,09,05,7.50
2021,04,12,09,06,7.40
2021,04,12,09,07,7.40
2021,04,12,09,08,7.40
2021,04,12,09,09,7.40
2021,04,12,09,10,7.30
2021,04,12,09,11,7.40
2021,04,12,09,12,7.40
2021,04,12,09,13,7.30
2021,04,12,09,14,7.30
2021,04,12,09,15,7.30
2021,04,12,09,16,7.20
2021,04,12,09,17,7.20
2021,04,12,09,18,7.20
2021,04,12,09,19,7.20
2021,04,12,09,20,7.20
2021,04,12,09,21,7.20
2021,04,12,09,22,7.20
2021,04,12,09,23,7.20
2021,04,12,09,24,7.30
2021,04,12,09,25,7.40
2021,04,12,09,26,7.40
2021,04,12,09,27,7.50
2021,04,12,09,28,7.50
2021,04,12,09,29,7.50
2021,04,12,09,30,7.60
2021,04,12,09,31,7.50
2021,04,12,09,32,7.50
2021,04,12,09,33,7.40
2021,04,12,09,34,7.40
2021,04,12,09,35,7.40
2021,04,12,09,36,7.40
2021,04,12,09,37,7.40
2021,04,12,09,38,7.40
2021,04,12,09,39,7.40
2021,04,12,09,40,7.40
2021,04,12,09,41,7.40
2021,04,12,09,42,7.40
2021,04,12,09,43,7.30
2021,04,12,09,44,7.30
2021,04,12,09,45,7.20
2021,04,12,09,46,7.20
2021,04,12,09,47,7.20
2021,04,12,09,48,7.10
2021,04,12,09,49,6.90
2021,04,12,09,50,6.80
2021,04,12,09,51,6.80
2021,04,12,09,52,6.80
2021,04,12,09,53,6.80
2021,04,12,09,54,6.90
2021,04,12,09,55,6.90
2021,04,12,09,56,7.00
2021,04,12,09,57,7.00
2021,04,12,09,58,7.10
2021,04,12,09,59,7.10
2021,04,12,10,00,7.20
2021,04,12,10,01,7.20
2021,04,12,10,02,7.20
2021,04,12,10,03,7.30
2021,04,12,10,04,7.30
2021,04,12,10,05,7.40
2021,04,12,10,06,7.50
2021,04,12,10,07,7.60
2021,04,12,10,08,7.60
2021,04,12,10,09,7.60
2021,04,12,10,10,7.60
2021,04,12,10,11,7.60
2021,04,12,10,12,7.60
2021,04,12,10,13,7.70
2021,04,12,10,14,7.70
2021,04,12,10,15,7.70
2021,04,12,10,16,7.70
2021,04,12,10,17,7.70
2021,04,12,10,18,7.70
2021,04,12,10,19,7.80
2021,04,12,10,20,7.70
2021,04,12,10,21,7.70
2021,04,12,10,22,7.80
2021,04,12,10,23,7.80
2021,04,12,10,24,7.80
2021,04,12,10,25,7.90
2021,04,12,10,26,8.00
2021,04,12,10,27,8.00
2021,04,12,10,28,8.10
2021,04,12,10,29,8.00
2021,04,12,10,30,8.00
2021,04,12,10,31,7.90
2021,04,12,10,32,7.90
2021,04,12,10,33,7.90
2021,04,12,10,34,8.00
2021,04,12,10,35,7.90
2021,04,12,10,36,7.90
2021,04,12,10,37,7.90
2021,04,12,10,38,7.90
2021,04,12,10,39,8.00
2021,04,12,10,40,8.10
2021,04,12,10,41,8.10
2021,04,12,10,42,8.20
2021,04,12,10,43,8.30
2021,04,12,10,44,8.40
2021,04,12,10,45,8.50
2021,04,12,10,46,8.50
2021,04,12,10,47,8.60
2021,04,12,10,48,8.60
2021,04,12,10,49,8.70
2021,04,12,10,50,8.80
2021,04,12,10,51,8.90
2021,04,12,10,52,8.80
2021,04,12,10,53,8.70
2021,04,12,10,54,8.60
2021,04,12,10,55,8.50
2021,04,12,10,56,8.60
2021,04,12,10,57,8.60
2021,04,12,10,58,8.60
2021,04,12,10,59,8.70
2021,04,12,11,00,8.70
2021,04,12,11,01,8.80
2021,04,12,11,02,8.90
2021,04,12,11,03,9.00
2021,04,12,11,04,9.10
2021,04,12,11,05,9.20
2021,04,12,11,06,9.30
2021,04,12,11,07,9.30
2021,04,12,11,08,9.40
2021,04,12,11,09,9.40
2021,04,12,11,10,9.50
2021,04,12,11,11,9.60
2021,04,12,11,12,9.60
2021,04,12,11,13,9.60
2021,04,12,11,14,9.60
2021,04,12,11,15,9.50
2021,04,12,11,16,9.40
2021,04,12,11,17,9.40
2021,04,12,11,18,9.40
2021,04,12,11,19,9.40
2021,04,12,11,20,9.40
2021,04,12,11,21,9.40
2021,04,12,11,22,9.30
2021,04,12,11,23,9.30
2021,04,12,11,24,9.30
2021,04,12,11,25,9.40
2021,04,12,11,26,9.40
2021,04,12,11,27,9.50
2021,04,12,11,28,9.50
2021,04,12,11,29,9.60
2021,04,12,11,30,9.70
2021,04,12,11,31,9.70
2021,04,12,11,32,9.80
2021,04,12,11,33,9.90
2021,04,12,11,34,9.90
2021,04,12,11,35,10.00
2021,04,12,11,36,10.10
2021,04,12,11,37,10.20
2021,04,12,11,38,10.30
2021,04,12,11,39,10.30
2021,04,12,11,40,10.40
2021,04,12,11,41,10.40
2021,04,12,11,42,10.30
2021,04,12,11,43,10.30
2021,04,12,11,44,10.30
2021,04,12,11,45,10.30
2021,04,12,11,46,10.30
2021,04,12,11,47,10.30
2021,04,12,11,48,10.30
2021,04,12,11,49,10.40
2021,04,12,11,50,10.40
2021,04,12,11,51,10.50
2021,04,12,11,52,10.50
2021,04,12,11,53,10.50
2021,04,12,11,54,10.50
2021,04,12,11,55,10.40
2021,04,12,11,56,10.40
2021,04,12,11,57,10.40
2021,04,12,11,58,10.40
2021,04,12,11,59,10.50
2021,04,12,12,00,10.50
2021,04,12,12,01,10.50
2021,04,12,12,02,10.60
2021,04,12,12,03,10.50
2021,04,12,12,04,10.50
2021,04,12,12,05,10.50
2021,04,12,12,06,10.50
2021,04,12,12,07,10.60
2021,04,12,12,08,10.70
2021,04,12,12,09,10.80
2021,04,12,12,10,10.80
2021,04,12,12,11,10.90
2021,04,12,12,12,10.90
2021,04,12,12,13,10.90
2021,04,12,12,14,10.90
2021,04,12,12,15,10.90
2021,04,12,12,16,10.80
2021,04,12,12,17,10.70
2021,04,12,12,18,10.70
2021,04,12,12,19,10.80
2021,04,12,12,20,11.00
2021,04,12,12,21,11.10
2021,04,12,12,22,11.20
2021,04,12,12,23,11.20
2021,04,12,12,24,11.20
2021,04,12,12,25,11.30
2021,04,12,12,26,11.30
2021,04,12,12,27,11.30
2021,04,12,12,28,11.40
2021,04,12,12,29,11.40
2021,04,12,12,30,11.40
2021,04,12,12,31,11.40
2021,04,12,12,32,11.50
2021,04,12,12,33,11.60
2021,04,12,12,34,11.70
2021,04,12,12,35,11.70
2021,04,12,12,36,11.80
2021,04,12,12,37,11.80
2021,04,12,12,38,11.80
2021,04,12,12,39,11.80
2021,04,12,12,40,11.80
2021,04,12,12,41,11.80
2021,04,12,12,42,11.80
2021,04,12,12,43,11.80
2021,04,12,12,44,11.80
2021,04,12,12,45,11.70
2021,04,12,12,46,11.70
2021,04,12,12,47,11.70
2021,04,12,12,48,11.70
2021,04,12,12,49,11.70
2021,04,12,12,50,11.70
2021,04,12,12,51,11.70
2021,04,12,12,52,11.70
2021,04,12,12,53,11.70
2021,04,12,12,54,11.70
2021,04,12,12,55,11.80
2021,04,12,12,56,11.90
2021,04,12,12,57,12.00
2021,04,12,12,58,12.10
2021,04,12,12,59,12.10
2021,04,12,13,00,12.10
2021,04,12,13,01,12.00
2021,04,12,13,02,12.00
2021,04,12,13,03,12.00
2021,04,12,13,04,12.00
2021,04,12,13,05,11.90
2021,04,12,13,06,11.90
2021,04,12,13,07,11.90
2021,04,12,13,08,12.00
2021,04,12,13,09,12.00
2021,04,12,13,10,12.00
2021,04,12,13,11,12.10
2021,04,12,13,12,12.20
2021,04,12,13,13,12.30
2021,04,12,13,14,12.30
2021,04,12,13,15,12.30
2021,04,12,13,16,12.40
2021,04,12,13,17,12.40
2021,04,12,13,18,12.40
2021,04,12,13,19,12.40
2021,04,12,13,20,12.50
2021,04,12,13,21,12.60
2021,04,12,13,22,12.60
2021,04,12,13,23,12.60
2021,04,12,13,24,12.60
2021,04,12,13,25,12.50
2021,04,12,13,26,12.50
2021,04,12,13,27,12.40
2021,04,12,13,28,12.40
2021,04,12,13,29,12.40
2021,04,12,13,30,12.50
2021,04,12,13,31,12.50
2021,04,12,13,32,12.60
2021,04,12,13,33,12.60
2021,04,12,13,34,12.60
2021,04,12,13,35,12.50
2021,04,12,13,36,12.40
2021,04,12,13,37,12.40
2021,04,12,13,38,12.40
2021,04,12,13,39,12.40
2021,04,12,13,40,12.50
2021,04,12,13,41,12.60
2021,04,12,13,42,12.60
2021,04,12,13,43,12.70
2021,04,12,13,44,12.70
2021,04,12,13,45,12.70
2021,04,12,13,46,12.80
2021,04,12,13,47,12.80
2021,04,12,13,48,12.80
2021,04,12,13,49,12.90
2021,04,12,13,50,12.90
2021,04,12,13,51,13.00
2021,04,12,13,52,13.10
2021,04,12,13,53,13.20
2021,04,12,13,54,13.20
2021,04,12,13,55,13.30
2021,04,12,13,56,13.30
2021,04,12,13,57,13.20
2021,04,12,13,58,13.20
2021,04,12,13,59,13.20
2021,04,12,14,00,13.20
2021,04,12,14,01,13.20
2021,04,12,14,02,13.30
2021,04,12,14,03,13.40
2021,04,12,14,04,13.50
2021,04,12,14,05,13.50
2021,04,12,14,06,13.50
2021,04,12,14,07,13.50
2021,04,12,14,08,13.50
2021,04,12,14,09,13.40
2021,04,12,14,10,13.40
2021,04,12,14,11,13.40
2021,04,12,14,12,13.50
2021,04,12,14,13,13.50
2021,04,12,14,14,13.60
2021,04,12,14,15,13.70
2021,04,12,14,16,13.70
2021,04,12,14,17,13.80
2021,04,12,14,18,13.80
2021,04,12,14,19,13.90
2021,04,12,14,20,13.90
2021,04,12,14,21,14.00
2021,04,12,14,22,14.00
2021,04,12,14,23,14.00
2021,04,12,14,24,14.00
2021,04,12,14,25,13.90
2021,04,12,14,26,13.90
2021,04,12,14,27,13.80
2021,04,12,14,28,13.80
2021,04,12,14,29,13.80
2021,04,12,14,30,13.70
2021,04,12,14,31,13.70
2021,04,12,14,32,13.70
2021,04,12,14,33,13.70
2021,04,12,14,34,13.70
2021,04,12,14,35,13.70
2021,04,12,14,36,13.70
2021,04,12,14,37,13.70
2021,04,12,14,38,13.80
2021,04,12,14,39,13.90
2021,04,12,14,40,13.80
2021,04,12,14,41,13.80
2021,04,12,14,42,13.80
2021,04,12,14,43,13.70
2021,04,12,14,44,13.70
2021,04,12,14,45,13.60
2021,04,12,14,46,13.50
2021,04,12,14,47,13.40
2021,04,12,14,48,13.50
2021,04,12,14,49,13.50
2021,04,12,14,50,13.50
2021,04,12,14,51,13.50
2021,04,12,14,52,13.50
2021,04,12,14,53,13.60
2021,04,12,14,54,13.70
2021,04,12,14,55,13.70
2021,04,12,14,56,13.80
2021,04,12,14,57,13.70
2021,04,12,14,58,13.70
2021,04,12,14,59,13.80
2021,04,12,15,00,13.80
2021,04,12,15,01,13.90
2021,04,12,15,02,14.00
2021,04,12,15,03,14.00
2021,04,12,15,04,14.00
2021,04,12,15,05,14.00
2021,04,12,15,06,14.00
2021,04,12,15,07,14.10
2021,04,12,15,08,14.10
2021,04,12,15,09,14.20
2021,04,12,15,10,14.20
2021,04,12,15,11,14.20
2021,04,12,15,12,14.30
2021,04,12,15,13,14.30
2021,04,12,15,14,14.40
2021,04,12,15,15,14.40
2021,04,12,15,16,14.40
2021,04,12,15,17,14.40
2021,04,12,15,18,14.50
2021,04,12,15,19,14.50
2021,04,12,15,20,14.50
2021,04,12,15,21,14.40
2021,04,12,15,22,14.30
2021,04,12,15,23,14.20
2021,04,12,15,24,14.20
2021,04,12,15,25,14.10
2021,04,12,15,26,14.10
2021,04,12,15,27,14.00
2021,04,12,15,28,13.90
2021,04,12,15,29,13.90
2021,04,12,15,30,13.90
2021,04,12,15,31,13.90
2021,04,12,15,32,13.90
2021,04,12,15,33,13.90
2021,04,12,15,34,13.90
2021,04,12,15,35,13.90
2021,04,12,15,36,13.90
2021,04,12,15,37,13.90
2021,04,12,15,38,14.00
2021,04,12,15,39,14.10
2021,04,12,15,40,14.20
2021,04,12,15,41,14.30
2021,04,12,15,42,14.30
2021,04,12,15,43,14.30
2021,04,12,15,44,14.30
2021,04,12,15,45,14.40
2021,04,12,15,46,14.40
2021,04,12,15,47,14.50
2021,04,12,15,48,14.50
2021,04,12,15,49,14.40
2021,04,12,15,50,14.30
2021,04,12,15,51,14.30
2021,04,12,15,52,14.30
2021,04,12,15,53,14.30
2021,04,12,15,54,14.30
2021,04,12,15,55,14.30
2021,04,12,15,56,14.40
2021,04,12,15,57,14.40
2021,04,12,15,58,14.40
2021,04,12,15,59,14.40
2021,04,12,16,00,14.40
2021,04,12,16,01,14.40
2021,04,12,16,02,14.30
2021,04,12,16,03,14.30
2021,04,12,16,04,14.20
2021,04,12,16,05,14.20
2021,04,12,16,06,14.10
2021,04,12,16,07,14.10
2021,04,12,16,08,14.10
2021,04,12,16,09,14.00
2021,04,12,16,10,14.00
2021,04,12,16,11,14.00
2021,04,12,16,12,14.20
2021,04,12,16,13,14.20
2021,04,12,16,14,14.30
2021,04,12,16,15,14.30
2021,04,12,16,16,14.30
2021,04,12,16,17,14.40
2021,04,12,16,18,14.40
2021,04,12,16,19,14.30
2021,04,12,16,20,14.20
2021,04,12,16,21,14.10
2021,04,12,16,22,14.10
2021,04,12,16,23,14.00
2021,04,12,16,24,14.00
2021,04,12,16,25,14.00
2021,04,12,16,26,14.10
2021,04,12,16,27,14.20
2021,04,12,16,28,14.20
2021,04,12,16,29,14.30
2021,04,12,16,30,14.40
2021,04,12,16,31,14.50
2021,04,12,16,32,14.60
2021,04,12,16,33,14.70
2021,04,12,16,34,14.70
2021,04,12,16,35,14.80
2021,04,12,16,36,14.80
2021,04,12,16,37,14.80
2021,04,12,16,38,14.70
2021,04,12,16,39,14.70
2021,04,12,16,40,14.60
2021,04,12,16,41,14.50
2021,04,12,16,42,14.50
2021,04,12,16,43,14.50
2021,04,12,16,44,14.40
2021,04,12,16,45,14.40
2021,04,12,16,46,14.40
2021,04,12,16,47,14.50
2021,04,12,16,48,14.50
2021,04,12,16,49,14.50
2021,04,12,16,50,14.40
2021,04,12,16,51,14.40
2021,04,12,16,52,14.40
2021,04,12,16,53,14.40
2021,04,12,16,54,14.40
2021,04,12,16,55,14.40
2021,04,12,16,56,14.40
2021,04,12,16,57,14.30
2021,04,12,16,58,14.30
2021,04,12,16,59,14.30
2021,04,12,17,00,14.30
2021,04,12,17,01,14.30
2021,04,12,17,02,14.30
2021,04,12,17,03,14.20
2021,04,12,17,04,14.20
2021,04,12,17,05,14.10
2021,04,12,17,06,14.20
2021,04,12,17,07,14.20
2021,04,12,17,08,14.20
2021,04,12,17,09,14.20
2021,04,12,17,10,14.20
2021,04,12,17,11,14.30
2021,04,12,17,12,14.20
2021,04,12,17,13,14.20
2021,04,12,17,14,14.20
2021,04,12,17,15,14.10
2021,04,12,17,16,14.10
2021,04,12,17,17,14.10
2021,04,12,17,18,14.10
2021,04,12,17,19,14.20
2021,04,12,17,20,14.20
2021,04,12,17,21,14.20
2021,04,12,17,22,14.20
2021,04,12,17,23,14.20
2021,04,12,17,24,14.30
2021,04,12,17,25,14.30
2021,04,12,17,26,14.30
2021,04,12,17,27,14.30
2021,04,12,17,28,14.20
2021,04,12,17,29,14.20
2021,04,12,17,30,14.20
2021,04,12,17,31,14.20
2021,04,12,17,32,14.30
2021,04,12,17,33,14.30
2021,04,12,17,34,14.30
2021,04,12,17,35,14.30
2021,04,12,17,36,14.30
2021,04,12,17,37,14.40
2021,04,12,17,38,14.40
2021,04,12,17,39,14.40
2021,04,12,17,40,14.40
2021,04,12,17,41,14.40